• In Romania
  • List of Countries
  • For 7 days
  • Water Temperature
  • Satellite Maps
  • Weather Map
  • Weather Widgets
  • user-avatar
    Login

    Hourly Weather Sarafovo

    Today, 22 June, Friday

    Time Temperature Precipitation Wind Pressure Humidity
    00:00 +22°C° 0.1 mm 1 mps 756 mmHg 86%
    01:00 +22°C° 0.1 mm 1 mps 756 mmHg 86%
    02:00 +21°C° 0.1 mm 2 mps 756 mmHg 86%
    03:00 +20°C° 0.1 mm 2 mps 755 mmHg 85%
    04:00 +20°C° 0.1 mm 2 mps 755 mmHg 85%
    05:00 +20°C° 0.1 mm 2 mps 755 mmHg 84%
    06:00 +23°C° 0.1 mm 1 mps 755 mmHg 76%
    07:00 +26°C° 0.1 mm 1 mps 755 mmHg 68%
    08:00 +28°C° 0.1 mm 1 mps 755 mmHg 60%
    09:00 +30°C° 0.1 mm 1 mps 755 mmHg 53%
    10:00 +32°C° 0.1 mm 1 mps 755 mmHg 46%
    11:00 +33°C° 0.1 mm 1 mps 755 mmHg 40%
    12:00 +34°C° 0 mm 2 mps 754 mmHg 40%
    13:00 +34°C° 0 mm 2 mps 754 mmHg 40%
    14:00 +34°C° 0 mm 2 mps 754 mmHg 40%
    15:00 +34°C° 0 mm 3 mps 753 mmHg 41%
    16:00 +33°C° 0 mm 3 mps 753 mmHg 42%
    17:00 +33°C° 0 mm 3 mps 753 mmHg 44%
    18:00 +30°C° 0.1 mm 3 mps 753 mmHg 50%
    19:00 +28°C° 0.1 mm 3 mps 753 mmHg 56%
    20:00 +26°C° 0.1 mm 2 mps 753 mmHg 62%
    21:00 +25°C° 0.4 mm 2 mps 753 mmHg 67%
    22:00 +24°C° 0.4 mm 2 mps 753 mmHg 73%
    23:00 +23°C° 0.4 mm 2 mps 753 mmHg 78%

    Tomorrow, 23 June, Saturday

    Time Temperature Precipitation Wind Pressure Humidity
    00:00 +21°C° 0.7 mm 4 mps 753 mmHg 82%
    01:00 +21°C° 0.7 mm 6 mps 754 mmHg 86%
    02:00 +20°C° 0.7 mm 7 mps 754 mmHg 90%
    03:00 +18°C° 0.2 mm 7 mps 754 mmHg 89%
    04:00 +17°C° 0.2 mm 7 mps 754 mmHg 87%
    05:00 +16°C° 0.2 mm 7 mps 754 mmHg 86%
    06:00 +17°C° 0.1 mm 7 mps 755 mmHg 79%
    07:00 +18°C° 0.1 mm 7 mps 755 mmHg 71%
    08:00 +18°C° 0.1 mm 7 mps 756 mmHg 64%
    09:00 +20°C° 0 mm 8 mps 756 mmHg 60%
    10:00 +21°C° 0 mm 8 mps 756 mmHg 56%
    11:00 +22°C° 0 mm 8 mps 757 mmHg 53%
    12:00 +23°C° 0 mm 7 mps 757 mmHg 50%
    13:00 +23°C° 0 mm 7 mps 757 mmHg 48%
    14:00 +24°C° 0 mm 7 mps 757 mmHg 46%
    15:00 +23°C° 0.1 mm 6 mps 757 mmHg 50%
    16:00 +23°C° 0.1 mm 6 mps 757 mmHg 54%
    17:00 +22°C° 0.1 mm 5 mps 757 mmHg 58%
    18:00 +21°C° 0 mm 4 mps 758 mmHg 61%
    19:00 +20°C° 0 mm 4 mps 758 mmHg 65%
    20:00 +19°C° 0 mm 3 mps 758 mmHg 68%
    21:00 +18°C° 0 mm 3 mps 758 mmHg 70%
    22:00 +18°C° 0 mm 2 mps 759 mmHg 72%
    23:00 +17°C° 0 mm 2 mps 759 mmHg 74%

    Day after tomorrow, 24 June, Sunday

    Time Temperature Precipitation Wind Pressure Humidity
    00:00 +16°C° 0 mm 2 mps 759 mmHg 75%
    01:00 +16°C° 0 mm 2 mps 759 mmHg 76%
    02:00 +15°C° 0 mm 2 mps 759 mmHg 77%
    03:00 +15°C° 0 mm 2 mps 759 mmHg 77%
    04:00 +14°C° 0 mm 2 mps 759 mmHg 77%
    05:00 +14°C° 0 mm 2 mps 759 mmHg 76%
    06:00 +16°C° 0 mm 3 mps 759 mmHg 69%
    07:00 +18°C° 0 mm 3 mps 759 mmHg 61%
    08:00 +20°C° 0 mm 3 mps 760 mmHg 54%
    09:00 +22°C° 0 mm 3 mps 760 mmHg 49%
    10:00 +25°C° 0 mm 3 mps 760 mmHg 45%
    11:00 +26°C° 0 mm 3 mps 760 mmHg 41%
    12:00 +27°C° 0 mm 3 mps 759 mmHg 41%
    13:00 +27°C° 0 mm 3 mps 759 mmHg 41%
    14:00 +27°C° 0 mm 4 mps 759 mmHg 41%
    15:00 +26°C° 0 mm 4 mps 759 mmHg 43%
    16:00 +26°C° 0 mm 4 mps 759 mmHg 46%
    17:00 +26°C° 0 mm 4 mps 759 mmHg 48%
    18:00 +23°C° 0 mm 4 mps 759 mmHg 55%
    19:00 +21°C° 0 mm 4 mps 759 mmHg 62%
    20:00 +19°C° 0 mm 4 mps 759 mmHg 70%
    21:00 +18°C° 0 mm 3 mps 759 mmHg 72%
    22:00 +18°C° 0 mm 3 mps 760 mmHg 75%
    23:00 +17°C° 0 mm 2 mps 760 mmHg 78%

    25 June, Monday

    Time Temperature Precipitation Wind Pressure Humidity
    00:00 +16°C° 0 mm 2 mps 760 mmHg 79%
    01:00 +16°C° 0 mm 2 mps 759 mmHg 80%
    02:00 +16°C° 0 mm 2 mps 759 mmHg 81%
    03:00 +16°C° 0 mm 2 mps 759 mmHg 81%
    04:00 +14°C° 0 mm 3 mps 759 mmHg 82%
    05:00 +14°C° 0 mm 3 mps 759 mmHg 83%
    06:00 +18°C° 0 mm 3 mps 759 mmHg 73%
    07:00 +20°C° 0 mm 4 mps 759 mmHg 62%
    08:00 +23°C° 0 mm 4 mps 759 mmHg 52%
    09:00 +25°C° 0 mm 5 mps 759 mmHg 48%
    10:00 +26°C° 0 mm 5 mps 759 mmHg 43%
    11:00 +27°C° 0 mm 6 mps 759 mmHg 38%
    12:00 +28°C° 0 mm 6 mps 759 mmHg 38%
    13:00 +28°C° 0 mm 6 mps 758 mmHg 38%
    14:00 +29°C° 0 mm 7 mps 758 mmHg 38%
    15:00 +28°C° 0 mm 7 mps 758 mmHg 41%
    16:00 +27°C° 0 mm 7 mps 758 mmHg 44%
    17:00 +27°C° 0 mm 7 mps 758 mmHg 47%
    18:00 +24°C° 0 mm 6 mps 758 mmHg 56%
    19:00 +23°C° 0 mm 6 mps 758 mmHg 66%
    20:00 +21°C° 0 mm 5 mps 758 mmHg 75%
    21:00 +20°C° 0 mm 5 mps 758 mmHg 80%
    22:00 +20°C° 0 mm 5 mps 758 mmHg 84%
    23:00 +19°C° 0 mm 5 mps 758 mmHg 89%

    26 June, Tuesday

    Time Temperature Precipitation Wind Pressure Humidity
    00:00 +19°C° 0 mm 5 mps 757 mmHg 88%
    01:00 +19°C° 0 mm 5 mps 757 mmHg 88%
    02:00 +19°C° 0 mm 5 mps 757 mmHg 87%
    03:00 +19°C° 0 mm 6 mps 757 mmHg 86%
    04:00 +19°C° 0 mm 6 mps 756 mmHg 85%
    05:00 +19°C° 0 mm 6 mps 756 mmHg 84%
    06:00 +21°C° 0 mm 7 mps 756 mmHg 76%
    07:00 +23°C° 0 mm 7 mps 756 mmHg 69%
    08:00 +26°C° 0 mm 8 mps 756 mmHg 61%
    09:00 +27°C° 0 mm 8 mps 755 mmHg 57%
    10:00 +28°C° 0 mm 8 mps 755 mmHg 53%
    11:00 +29°C° 0 mm 9 mps 755 mmHg 50%
    12:00 +28°C° 0.2 mm 9 mps 755 mmHg 53%
    13:00 +28°C° 0.2 mm 9 mps 754 mmHg 57%
    14:00 +28°C° 0.2 mm 9 mps 754 mmHg 60%
    15:00 +26°C° 1 mm 9 mps 754 mmHg 68%
    16:00 +24°C° 1 mm 8 mps 754 mmHg 76%
    17:00 +23°C° 1 mm 7 mps 754 mmHg 84%
    18:00 +22°C° 5.1 mm 7 mps 754 mmHg 87%
    19:00 +22°C° 5.1 mm 7 mps 754 mmHg 89%
    20:00 +21°C° 5.1 mm 7 mps 754 mmHg 92%
    21:00 +21°C° 7.7 mm 6 mps 753 mmHg 93%
    22:00 +20°C° 7.7 mm 5 mps 753 mmHg 94%
    23:00 +20°C° 7.7 mm 5 mps 753 mmHg 94%

    27 June, Wednesday

    Time Temperature Precipitation Wind Pressure Humidity
    00:00 +20°C° 2.5 mm 4 mps 753 mmHg 95%
    01:00 +20°C° 2.5 mm 4 mps 753 mmHg 95%
    02:00 +19°C° 2.5 mm 3 mps 752 mmHg 95%
    03:00 +19°C° 0.6 mm 3 mps 752 mmHg 96%
    04:00 +19°C° 0.6 mm 3 mps 752 mmHg 96%
    05:00 +18°C° 0.6 mm 4 mps 752 mmHg 96%
    06:00 +19°C° 1.1 mm 4 mps 752 mmHg 94%
    07:00 +20°C° 1.1 mm 4 mps 752 mmHg 92%
    08:00 +21°C° 1.1 mm 4 mps 752 mmHg 90%
    09:00 +22°C° 0.7 mm 4 mps 753 mmHg 86%
    10:00 +23°C° 0.7 mm 5 mps 753 mmHg 83%
    11:00 +25°C° 0.7 mm 5 mps 753 mmHg 79%
    12:00 +25°C° 0.5 mm 5 mps 753 mmHg 76%
    13:00 +26°C° 0.5 mm 5 mps 752 mmHg 73%
    14:00 +26°C° 0.5 mm 5 mps 752 mmHg 70%
    15:00 +26°C° 0.2 mm 4 mps 752 mmHg 71%
    16:00 +26°C° 0.2 mm 4 mps 752 mmHg 72%
    17:00 +26°C° 0.2 mm 4 mps 752 mmHg 73%
    18:00 +24°C° 0.1 mm 3 mps 752 mmHg 77%
    19:00 +22°C° 0.1 mm 3 mps 753 mmHg 81%
    20:00 +21°C° 0.1 mm 3 mps 753 mmHg 86%
    21:00 +20°C° 0 mm 3 mps 753 mmHg 88%
    22:00 +19°C° 0 mm 3 mps 753 mmHg 89%
    23:00 +19°C° 0 mm 3 mps 753 mmHg 91%
    Show more